NOAA 11 DEB

Satellite information

Favourite Embed

Satellite Type and Status

DEBRISIN ORBIT

Key statistics

Satellite NOAA 11 DEB at a glance.

Uptime

13597

Days in orbit

Revolutions

≈ 14.3

Per day

Orbit

SSO

Sun Synchronous Orbit

Inclination

98.5

Latest

Satellite identification and parameters

Extended collection of information and parameters for NOAA 11 DEB.

Object identification

Identified? True

Debris? True

Object name: NOAA 11 DEB

International designator: 1988-089E

Object number (NORAD): 37242

Object ID (CCSDS): 37242

Country: UNITED STATES OF AMERICA (US)

Current information (Y/N): Y

RCS size: MEDIUM

Orbital parameters

Period: 100.681 minutes

Inclination: 98.5096 deg

SMA: 7169.002 km

Apoapsis: 799.747 km

Periapsis: 781.987 km

RAAN: 323.4183 deg

Eccentricy: 0.00123869

Argument of periapsis: 301.8017 deg

Mean anomaly: 58.1959 deg

Mean motion: 14.3025916 rev/day

Mean motion (dot): 0.00004059 rev/day2

B* drag term: 0.00158007 1/REarth

Two-line elements (TLE)

Creation date: Dec. 14, 2025, 6:24 p.m.

Reference frame: TEME

Reference center: EARTH

Epoch: Dec. 14, 2025, 4:29 a.m. UTC

TLE line 0: 0 NOAA 11 DEB

TLE line 1: 1 37242U 88089E 25348.18743364 .00004059 00000-0 15801-2 0 9994

TLE line 2: 2 37242 98.5096 323.4183 0012387 301.8017 58.1959 14.30259160923295

Live tracking on map

Real-time ground track for satellite NOAA 11 DEB.

In-orbit conjunctions

A list of the most updated potential collisions computed for object NOAA 11 DEB.

Target Orbit TCA Probability of collision Miss distance Type
THOR ABLESTAR DEB LEO 2024-11-01 02:28:10 0.0001086519 262.0 (m) DEBRIS
SAPPHIRE LEO 2024-10-13 11:09:33 0.0002045796 808.0 (m) PAYLOAD
SL-24 R/B SSO 2024-10-03 20:46:17 0.0009056335 275.0 (m) ROCKET BODY

Associated space launch

Fourth generation NOAA meteorological satellite

NOAA 11 DEB was lifted into orbit during the mission ‘Atlas E | NOAA 11’, on board a Atlas E space rocket.

The launch took place on Sept. 24, 1988, 10:02 a.m. from Space Launch Complex 3W.

For more information about the launch, click the button.

Launch to space Atlas E | NOAA 11
Atlas E | NOAA 11

Agency: N/A

Status: Launch Successful

Launch date: Sept. 24, 1988, 10:02 a.m. UTC

Rocket: Atlas E

Launch pad: Space Launch Complex 3W

Location: Vandenberg SFB, CA, USA

...

Latest news about this satellite

There are no fresh news available about this satellite. Check back as we update our databases every day.


Newsletter sign-up

Weekly statistics, charts and insights to help you stay on top of the space industry.